BEIDOU-2 IGSO-6

Last updated on Mon Oct 07 2024 00:02:40 GMT+0000 (Coordinated Universal Time)

1 41434U 16021A 24280.32480160 -.00000146 00000+0 00000+0 0 9996 2 41434 59.3481 44.2368 0053759 222.3287 320.2140 1.00293290 31271
UTC large
Height (km)
Speed (km/s)
/
Latitude / Longitude
Inclination (degrees)
Orbital Period (minutes)
Azimuth
Elevation
Range (km)
Doppler Factor

Next 0 passes for location: London (51.5072 / 0.1276)

Sorry there are no passes over London.